Jaipur, India

5:47 PM IST on July 23, 2017 (GMT +0530)
Jaipur

Weather History for VIJP - January, 2013

Change the Weather History Date:

Sunday, January 20, 2013

  Actual Average Record
Temperature  
Mean Temperature 54 °F -  
Max Temperature 66 °F - - ()
Min Temperature 41 °F - - ()
Degree Days  
Heating Degree Days 12    
Growing Degree Days 4 (Base 50)    
Moisture  
Dew Point 33 °F    
Average Humidity 44    
Maximum Humidity 76    
Minimum Humidity 15    
Precipitation  
Precipitation 0.00 in - - ()
Sea Level Pressure  
Sea Level Pressure 30.15 in    
Wind  
Wind Speed 2 mph ()    
Max Wind Speed 9 mph    
Max Gust Speed -    
Visibility 2.1 miles    
Events      
T = Trace of Precipitation, MM = Missing Value Source: Averaged Metar Reports

Daily Weather History Graph

Daily Weather History Graph

Search for Another Location

Airport or City:

Trip Planner

Search our weather history database for the weather conditions in past years. The results will help you decide how hot, cold, wet, or windy it might be!

Date:

Astronomy

Jan. 20, 2013 Rise Set
Actual Time 7:16 AM IST 5:59 PM IST
Civil Twilight 6:51 AM IST 6:24 PM IST
Nautical Twilight 6:23 AM IST 6:52 PM IST
Astronomical Twilight 5:55 AM IST 7:20 PM IST
Moon 12:40 PM IST (1/20) 1:27 AM IST (1/20)
Length of Visible Light 11h 32m
Length of Day
10h 43m
Waxing Gibbous, 62% of the Moon is Illuminated
Jan 20
Waxing Gibbous
Jan 27
Full
Feb 3
Last Quarter
Feb 10
New
Feb 18
First Quarter

Hourly Weather History & Observations

Time (IST) Temp. Dew Point Humidity Pressure Visibility Wind Dir Wind Speed Gust Speed Precip Events Conditions
12:00 AM 55.4 °F 35.6 °F 47% 30.18 in 1.2 mi NNE 3.5 mph - N/A   Smoke
1:00 AM 50.0 °F 35.6 °F 58% 30.18 in 1.2 mi Variable 1.2 mph - N/A   Smoke
2:00 AM 48.2 °F 35.6 °F 62% 30.15 in 1.2 mi Calm Calm - N/A   Smoke
2:30 AM 46 °F 35 °F 56% 30.19 in 1 mi Calm Calm - -   Smoke
3:00 AM 46.4 °F 35.6 °F 66% 30.15 in 1.2 mi Calm Calm - N/A   Smoke
4:00 AM 46.4 °F 37.4 °F 71% 30.12 in 1.2 mi Calm Calm - N/A   Smoke
5:00 AM 44.6 °F 35.6 °F 71% 30.12 in 1.2 mi Calm Calm - N/A   Smoke
5:30 AM 44 °F 37 °F 70% 30.16 in 1 mi Calm Calm - -   Smoke
5:30 AM 46.4 °F 37.4 °F 71% 30.12 in 1.2 mi Calm Calm - N/A   Smoke
6:00 AM 44.6 °F 35.6 °F 71% 30.15 in 1.2 mi Calm Calm - N/A   Smoke
7:00 AM 42.8 °F 35.6 °F 76% 30.15 in 1.2 mi Calm Calm - N/A   Smoke
8:00 AM 44.6 °F 35.6 °F 71% 30.18 in 1.2 mi Calm Calm - N/A   Smoke
8:30 AM 48 °F 38 °F 60% 30.21 in 1 mi Calm Calm - -   Smoke
9:00 AM 55.4 °F 39.2 °F 54% 30.21 in 0.9 mi Calm Calm - N/A   Smoke
9:30 AM 57.2 °F 35.6 °F 44% 30.21 in 1.2 mi Calm Calm - N/A   Smoke
10:30 AM 60.8 °F 30.2 °F 31% 30.21 in 2.5 mi Variable 6.9 mph - N/A   Haze
11:30 AM 63 °F 29 °F 17% 30.18 in 2 mi North 6.9 mph - -  
11:30 AM 62.6 °F 24.8 °F 24% 30.21 in 3.7 mi Variable 6.9 mph - N/A   Unknown
12:00 PM 64.4 °F 26.6 °F 24% 30.18 in 3.7 mi Variable 5.8 mph - N/A   Unknown
1:00 PM 66.2 °F 30.2 °F 26% 30.15 in 3.7 mi Variable 5.8 mph - N/A   Unknown
1:30 PM 66.2 °F 30.2 °F 26% 30.15 in 3.7 mi Variable 6.9 mph - N/A   Unknown
2:00 PM 66.2 °F 30.2 °F 26% 30.12 in 3.7 mi NW 8.1 mph - N/A   Unknown
2:30 PM 66 °F 30 °F 15% 30.10 in 2 mi North 6.9 mph - -  
3:00 PM 66.2 °F 30.2 °F 26% 30.12 in 3.7 mi Variable 6.9 mph - N/A   Unknown
3:30 PM 66.2 °F 30.2 °F 26% 30.12 in 3.7 mi Variable 9.2 mph - N/A   Unknown
4:00 PM 66.2 °F 32.0 °F 28% 30.09 in 3.7 mi Variable 9.2 mph - N/A   Unknown
4:30 PM 66.2 °F 30.2 °F 26% 30.09 in 3.7 mi Variable 6.9 mph - N/A   Unknown
5:00 PM 64.4 °F 30.2 °F 28% 30.09 in 3.7 mi Variable 8.1 mph - N/A   Unknown
5:30 PM 62.6 °F 30.2 °F 30% 30.12 in 3.7 mi Variable 5.8 mph - N/A   Unknown
6:30 PM 60.8 °F 33.8 °F 36% 30.12 in 2.5 mi Calm Calm - N/A   Haze
7:00 PM 60.8 °F 33.8 °F 36% 30.12 in 2.2 mi Calm Calm - N/A   Haze
8:30 PM 57 °F 34 °F 29% 30.13 in 1 mi NE 3.5 mph - -   Haze
9:00 PM 55.4 °F 33.8 °F 44% 30.15 in 1.6 mi Variable 1.2 mph - N/A   Haze
9:30 PM 55.4 °F 32.0 °F 41% 30.15 in 1.2 mi NNE 3.5 mph - N/A   Smoke
10:00 PM 55.4 °F 32.0 °F 41% 30.15 in 1.2 mi Calm Calm - N/A   Smoke
11:00 PM 50.0 °F 32.0 °F 50% 30.15 in 1.2 mi Calm Calm - N/A   Smoke
11:30 PM 54 °F 37 °F 41% 30.16 in 1 mi Calm Calm - -   Smoke